Vorticity
11 17 13 14 11 10 13 25 34 -11 6 18 27 -20 15 3 14 9 -2 1 -2 -2 7 3 4 5 4 4 7 3 6 13
16 15 17 14 21 -0 16 16 35 23 6 8 6 7 11 22 4 -5 9 10 -3 8 4 4 2 3 7 6 1 3 8 11
19 9 13 9 32 10 16 29 5 37 7 12 4 -4 16 33 14 14 -0 -10 -3 5 2 2 2 7 5 3 4 6 3 7
15 8 14 17 26 18 7 20 39 19 18 1 6 12 35 16 34 10 10 8 1 5 4 0 3 3 8 4 3 5 2 6
7 13 13 17 13 14 23 19 28 24 0 6 2 3 21 -5 6 0 7 6 5 3 5 1 1 4 7 3 3 4 2 5
9 5 17 19 3 14 18 9 -19 12 -10 4 5 -6 -3 -12 -2 11 6 3 -1 6 3 2 4 3 5 3 5 5 3 6
13 6 18 12 21 32 9 -10 28 7 -4 19 -25 -6 7 -11 4 27 13 -1 -3 5 2 3 7 4 8 5 6 8 6 4
14 12 4 21 13 18 -14 29 15 10 -1 31 7 9 2 18 13 11 7 6 -7 2 3 1 6 1 4 4 7 10 10 7
10 27 9 20 16 11 19 13 8 22 -10 -4 15 4 13 11 7 21 43 15 1 1 3 1 3 1 7 7 8 5 7 10
8 24 22 11 22 10 6 -3 4 11 9 16 18 14 3 3 10 40 -9 2 3 3 3 3 3 6 2 7 2 5 7 9
6 19 20 -0 27 14 5 13 16 9 9 -8 16 7 -3 11 16 16 1 -1 5 3 2 3 2 5 5 5 4 7 6 5
7 9 28 -12 38 7 14 -1 37 23 2 -6 22 3 9 -5 8 33 10 -4 2 5 -2 3 4 1 6 5 6 2 4 6
10 9 6 24 37 16 26 27 32 22 13 16 1 6 -4 15 12 31 40 51 -7 6 4 4 1 6 4 4 1 4 13 11
10 10 9 7 19 16 11 9 32 33 -1 7 14 10 19 -3 13 1 17 5 31 8 10 4 6 6 3 3 6 11 9 11
10 11 8 7 12 26 -9 34 6 28 36 -0 11 -0 4 17 26 30 32 27 26 20 13 2 9 5 1 8 13 14 16 21
10 10 8 9 5 21 21 12 7 4 3 37 26 21 13 -4 -1 10 13 21 20 9 9 5 4 9 13 14 16 17 5 -6
8 9 9 9 7 8 5 1 17 21 13 17 17 20 15 13 17 7 1 1 6 5 8 6 14 18 9 18 12 12 10 9
6 7 8 8 9 7 6 8 8 4 7 12 24 6 8 4 2 6 10 9 9 13 13 19 14 6 9 5 6 2 2 3
7 6 9 8 7 7 9 9 7 6 9 8 5 8 8 13 10 14 17 21 18 13 8 8 4 5 4 2 1 5 3 -1
7 6 6 8 7 3 5 5 7 7 9 9 9 9 5 6 8 10 14 8 8 8 6 5 2 2 8 -2 -2 -1 0 5
Height
5751 5749 5747 5747 5747 5749 5750 5738 5749 5757 5759 5767 5771 5775 5777 5784 5788 5791 5796 5799 5802 5806 5812 5814 5816 5819 5819 5820 5822 5821 5821 5823
5745 5744 5741 5737 5740 5743 5742 5744 5752 5733 5752 5760 5767 5770 5774 5780 5783 5787 5793 5795 5799 5804 5809 5811 5814 5815 5817 5818 5817 5818 5819 5821
5740 5737 5734 5732 5734 5737 5738 5745 5747 5730 5746 5756 5762 5767 5770 5773 5780 5784 5788 5791 5794 5800 5805 5808 5811 5813 5813 5815 5814 5815 5817 5818
5736 5733 5729 5727 5728 5731 5734 5737 5737 5729 5747 5754 5760 5764 5767 5773 5776 5780 5785 5788 5794 5797 5803 5806 5808 5809 5810 5811 5811 5813 5813 5814
5734 5729 5725 5724 5725 5727 5730 5734 5733 5734 5743 5751 5757 5758 5762 5768 5775 5780 5783 5788 5791 5795 5799 5802 5805 5806 5807 5808 5809 5810 5811 5812
5732 5727 5721 5722 5720 5724 5728 5731 5734 5739 5744 5751 5756 5759 5762 5766 5771 5776 5779 5784 5787 5791 5796 5799 5802 5803 5803 5804 5806 5808 5807 5808
5730 5727 5723 5719 5721 5720 5726 5731 5734 5739 5744 5747 5752 5757 5761 5763 5768 5773 5776 5780 5783 5787 5791 5795 5797 5799 5800 5801 5801 5804 5803 5804
5728 5726 5724 5719 5716 5721 5723 5725 5730 5735 5740 5745 5748 5752 5757 5759 5763 5768 5772 5775 5779 5782 5786 5791 5793 5795 5797 5797 5797 5800 5801 5800
5725 5723 5721 5720 5718 5717 5721 5725 5727 5731 5735 5739 5743 5747 5751 5756 5758 5762 5766 5770 5773 5777 5782 5786 5788 5790 5793 5793 5794 5796 5796 5796
5724 5720 5718 5718 5717 5716 5716 5720 5723 5727 5730 5733 5737 5743 5746 5750 5755 5759 5763 5766 5769 5774 5778 5781 5784 5786 5788 5790 5791 5792 5792 5792
5721 5719 5717 5716 5713 5714 5715 5716 5719 5722 5726 5730 5734 5738 5744 5748 5752 5754 5759 5762 5766 5769 5772 5776 5779 5782 5784 5785 5786 5787 5786 5787
5718 5716 5716 5714 5714 5715 5714 5713 5712 5715 5721 5726 5729 5733 5741 5743 5748 5750 5754 5758 5760 5763 5768 5771 5775 5778 5779 5779 5781 5781 5781 5782
5717 5715 5714 5711 5711 5712 5708 5707 5705 5710 5718 5724 5725 5729 5733 5738 5742 5743 5747 5752 5755 5757 5762 5765 5769 5772 5774 5775 5774 5775 5775 5775
5716 5714 5713 5711 5708 5709 5709 5706 5705 5708 5713 5718 5723 5725 5729 5733 5737 5738 5742 5745 5746 5752 5758 5760 5763 5766 5768 5768 5768 5768 5768 5769
5714 5712 5712 5710 5707 5705 5706 5707 5706 5708 5710 5713 5718 5721 5726 5729 5731 5733 5736 5738 5744 5751 5754 5756 5759 5761 5761 5762 5761 5763 5761 5763
5714 5712 5711 5710 5708 5706 5705 5706 5707 5709 5709 5711 5714 5717 5722 5726 5729 5731 5732 5735 5742 5747 5750 5751 5753 5754 5753 5754 5755 5756 5757 5758
5712 5712 5710 5709 5709 5709 5708 5707 5708 5708 5709 5711 5713 5716 5721 5723 5725 5727 5731 5734 5739 5743 5745 5745 5747 5749 5747 5748 5749 5750 5752 5754
5709 5710 5710 5709 5708 5708 5708 5708 5709 5709 5709 5710 5712 5715 5718 5720 5722 5724 5727 5730 5734 5738 5740 5741 5743 5744 5743 5744 5745 5746 5748 5749
5708 5707 5708 5708 5707 5707 5707 5707 5707 5707 5708 5710 5711 5713 5715 5718 5719 5721 5724 5726 5729 5733 5734 5737 5738 5737 5738 5740 5741 5743 5743 5744
5705 5706 5706 5706 5707 5707 5707 5707 5706 5707 5709 5709 5711 5711 5712 5715 5717 5719 5721 5723 5725 5727 5730 5732 5732 5733 5734 5735 5736 5738 5738 5738